SWA3213 KMCO-TIST

Flight info

Callsign SWA3213
Flight time 2h 28m
Altitude 37000
Route DDANY3 JIPOD DCT VENDS Y185 CVIKK DCT KRTIS L463 BRRGO BR1L BENIE DCT CHASO Y306 HAGIT Y290 JETSS
Aircraft B738/M-SADE2E3GIJ4RWZ/LB1D1

Departure

Time 2026-05-08 14:47
Airport Orlando International Airport (KMCO)

Arrival

Time 2026-05-08 17:16
Airport Cyril E. King Airport (TIST)
Time Latitude Longitude Altitude Speed Heading
2026-05-08 14:21 28.43474 -81.30011 100 ft 0 kts 269°
2026-05-08 14:31 28.43475 -81.30005 100 ft 4 kts 274°
2026-05-08 14:32 28.43482 -81.29964 98 ft 4 kts 186°
2026-05-08 14:32 28.43505 -81.29969 100 ft 4 kts 159°
2026-05-08 14:32 28.43515 -81.29973 98 ft 0 kts 159°
2026-05-08 14:37 28.43506 -81.29970 100 ft 3 kts 159°
2026-05-08 14:37 28.43484 -81.29956 99 ft 4 kts 146°
2026-05-08 14:37 28.43464 -81.29935 98 ft 4 kts 131°
2026-05-08 14:37 28.43449 -81.29910 100 ft 4 kts 119°
2026-05-08 14:38 28.43440 -81.29882 100 ft 4 kts 100°
2026-05-08 14:38 28.43439 -81.29853 101 ft 4 kts 91°
2026-05-08 14:38 28.43439 -81.29825 102 ft 4 kts 95°
2026-05-08 14:38 28.43423 -81.29805 103 ft 4 kts 169°
2026-05-08 14:39 28.43366 -81.29804 102 ft 12 kts 179°
2026-05-08 14:39 28.43281 -81.29804 102 ft 12 kts 179°
2026-05-08 14:39 28.43197 -81.29803 102 ft 12 kts 179°
2026-05-08 14:39 28.43110 -81.29802 102 ft 13 kts 179°
2026-05-08 14:40 28.43010 -81.29801 102 ft 15 kts 180°
2026-05-08 14:40 28.42910 -81.29801 102 ft 14 kts 180°
2026-05-08 14:40 28.42814 -81.29800 102 ft 13 kts 179°
2026-05-08 14:40 28.42723 -81.29798 102 ft 13 kts 179°
2026-05-08 14:41 28.42634 -81.29797 102 ft 13 kts 179°
2026-05-08 14:41 28.42537 -81.29795 102 ft 16 kts 179°
2026-05-08 14:41 28.42415 -81.29794 101 ft 18 kts 179°
2026-05-08 14:41 28.42291 -81.29793 101 ft 17 kts 179°
2026-05-08 14:42 28.42172 -81.29792 101 ft 17 kts 179°
2026-05-08 14:42 28.42057 -81.29791 101 ft 16 kts 179°
2026-05-08 14:42 28.41946 -81.29790 101 ft 16 kts 180°
2026-05-08 14:42 28.41840 -81.29789 101 ft 15 kts 180°
2026-05-08 14:43 28.41738 -81.29788 101 ft 14 kts 179°
2026-05-08 14:43 28.41641 -81.29786 101 ft 14 kts 179°
2026-05-08 14:43 28.41548 -81.29786 101 ft 13 kts 179°
2026-05-08 14:43 28.41458 -81.29785 101 ft 13 kts 180°
2026-05-08 14:44 28.41371 -81.29784 100 ft 12 kts 180°
2026-05-08 14:44 28.41286 -81.29784 100 ft 12 kts 179°
2026-05-08 14:44 28.41203 -81.29783 100 ft 12 kts 179°
2026-05-08 14:44 28.41123 -81.29781 100 ft 11 kts 179°
2026-05-08 14:45 28.41045 -81.29780 100 ft 11 kts 179°
2026-05-08 14:45 28.40968 -81.29779 99 ft 11 kts 179°
2026-05-08 14:45 28.40894 -81.29779 99 ft 11 kts 179°
2026-05-08 14:45 28.40830 -81.29761 99 ft 10 kts 127°
2026-05-08 14:46 28.40821 -81.29688 97 ft 9 kts 90°
2026-05-08 14:46 28.40821 -81.29610 96 ft 11 kts 90°
2026-05-08 14:46 28.40837 -81.29561 96 ft 6 kts
2026-05-08 14:46 28.40880 -81.29561 97 ft 6 kts 359°
2026-05-08 14:47 28.41043 -81.29563 99 ft 56 kts 359°
2026-05-08 14:47 28.41670 -81.29569 105 ft 122 kts 360°
2026-05-08 14:47 28.42702 -81.29581 227 ft 165 kts 358°
2026-05-08 14:47 28.43857 -81.29606 998 ft 168 kts 356°
2026-05-08 14:48 28.45047 -81.29447 1638 ft 181 kts 22°
2026-05-08 14:48 28.45991 -81.28370 1940 ft 207 kts 55°
2026-05-08 14:48 28.46835 -81.26989 2339 ft 220 kts 51°
2026-05-08 14:48 28.47802 -81.25543 2526 ft 240 kts 50°
2026-05-08 14:49 28.48867 -81.23987 2691 ft 262 kts 49°
2026-05-08 14:49 28.50014 -81.22300 3231 ft 269 kts 53°
2026-05-08 14:49 28.50792 -81.20349 3851 ft 279 kts 77°
2026-05-08 14:49 28.51098 -81.18175 4568 ft 277 kts 81°
2026-05-08 14:50 28.51102 -81.15988 4930 ft 280 kts 104°
2026-05-08 14:50 28.50555 -81.13840 5533 ft 284 kts 105°
2026-05-08 14:50 28.50032 -81.11649 6171 ft 289 kts 104°
2026-05-08 14:50 28.49522 -81.09429 6862 ft 291 kts 104°
2026-05-08 14:51 28.49011 -81.07183 7507 ft 295 kts 105°
2026-05-08 14:51 28.48294 -81.04999 8145 ft 298 kts 126°
2026-05-08 14:51 28.46880 -81.03302 8849 ft 297 kts 142°
2026-05-08 14:51 28.45267 -81.01818 9553 ft 300 kts 144°
2026-05-08 14:52 28.43616 -81.00351 10232 ft 304 kts 144°
2026-05-08 14:52 28.40048 -80.97174 10617 ft 348 kts 144°
2026-05-08 14:52 28.38098 -80.95417 10773 ft 367 kts 144°
2026-05-08 14:53 28.36077 -80.93581 11141 ft 376 kts 143°
2026-05-08 14:53 28.34031 -80.91715 11758 ft 378 kts 144°
2026-05-08 14:53 28.31964 -80.89834 12290 ft 384 kts 144°
2026-05-08 14:53 28.29866 -80.87926 12826 ft 389 kts 144°
2026-05-08 14:54 28.27918 -80.85766 13348 ft 400 kts 127°
2026-05-08 14:54 28.26659 -80.82927 13946 ft 406 kts 114°
2026-05-08 14:54 28.25619 -80.79929 14466 ft 411 kts 112°
2026-05-08 14:54 28.24579 -80.76895 14994 ft 415 kts 113°
2026-05-08 14:55 28.23510 -80.73834 15543 ft 419 kts 113°
2026-05-08 14:55 28.22414 -80.70760 16103 ft 423 kts 114°
2026-05-08 14:55 28.21298 -80.67663 16639 ft 427 kts 114°
2026-05-08 14:55 28.20194 -80.64519 17174 ft 432 kts 112°
2026-05-08 14:56 28.19130 -80.61316 17689 ft 436 kts 111°
2026-05-08 14:56 28.18077 -80.58077 18221 ft 440 kts 111°
2026-05-08 14:56 28.17015 -80.54811 18675 ft 444 kts 111°
2026-05-08 14:56 28.15937 -80.51516 19125 ft 448 kts 111°
2026-05-08 14:57 28.14843 -80.48193 19575 ft 451 kts 111°
2026-05-08 14:57 28.13752 -80.44897 20022 ft 455 kts 111°
2026-05-08 14:57 28.12634 -80.41529 20469 ft 458 kts 111°
2026-05-08 14:57 28.11507 -80.38139 20907 ft 462 kts 111°
2026-05-08 14:58 28.10371 -80.34721 21326 ft 466 kts 111°
2026-05-08 14:58 28.09224 -80.31277 21742 ft 469 kts 111°
2026-05-08 14:58 28.08064 -80.27805 22162 ft 473 kts 112°
2026-05-08 14:58 28.06895 -80.24317 22562 ft 476 kts 112°
2026-05-08 14:59 28.05715 -80.20802 22958 ft 479 kts 112°
2026-05-08 14:59 28.03329 -80.13698 23692 ft 486 kts 112°
2026-05-08 14:59 28.02123 -80.10112 24001 ft 489 kts 112°
2026-05-08 15:00 28.00911 -80.06509 24335 ft 491 kts 112°
2026-05-08 15:00 27.99697 -80.02902 24733 ft 490 kts 112°
2026-05-08 15:00 27.98481 -79.99294 25102 ft 491 kts 112°
2026-05-08 15:00 27.97258 -79.95670 25378 ft 495 kts 112°
2026-05-08 15:01 27.96028 -79.92029 25648 ft 498 kts 112°
2026-05-08 15:01 27.94787 -79.88359 25958 ft 500 kts 112°
2026-05-08 15:01 27.93543 -79.84683 26272 ft 502 kts 112°
2026-05-08 15:01 27.92293 -79.80994 26580 ft 504 kts 112°
2026-05-08 15:02 27.91036 -79.77286 26867 ft 506 kts 112°
2026-05-08 15:02 27.89775 -79.73572 27160 ft 508 kts 112°
2026-05-08 15:02 27.88507 -79.69841 27433 ft 510 kts 112°
2026-05-08 15:02 27.87232 -79.66092 27702 ft 512 kts 112°
2026-05-08 15:03 27.85951 -79.62330 27964 ft 514 kts 112°
2026-05-08 15:03 27.84662 -79.58548 28219 ft 516 kts 112°
2026-05-08 15:03 27.83368 -79.54757 28463 ft 518 kts 112°
2026-05-08 15:03 27.82069 -79.50954 28724 ft 520 kts 112°
2026-05-08 15:04 27.80763 -79.47134 28974 ft 522 kts 112°
2026-05-08 15:04 27.79452 -79.43304 29207 ft 524 kts 112°
2026-05-08 15:04 27.78133 -79.39456 29439 ft 526 kts 112°
2026-05-08 15:04 27.76812 -79.35603 29731 ft 526 kts 112°
2026-05-08 15:05 27.75491 -79.31756 30090 ft 525 kts 112°
2026-05-08 15:05 27.74171 -79.27915 30411 ft 524 kts 112°
2026-05-08 15:05 27.72868 -79.24128 30691 ft 524 kts 112°
2026-05-08 15:05 27.71530 -79.20241 30957 ft 525 kts 112°
2026-05-08 15:06 27.70207 -79.16406 31233 ft 525 kts 113°
2026-05-08 15:06 27.68901 -79.12621 31516 ft 524 kts 113°
2026-05-08 15:06 27.67579 -79.08795 31809 ft 524 kts 113°
2026-05-08 15:06 27.66252 -79.04961 32094 ft 524 kts 112°
2026-05-08 15:07 27.64928 -79.01135 32399 ft 524 kts 113°
2026-05-08 15:07 27.63603 -78.97312 32704 ft 523 kts 113°
2026-05-08 15:07 27.62277 -78.93492 33000 ft 523 kts 113°
2026-05-08 15:07 27.60954 -78.89680 33367 ft 521 kts 113°
2026-05-08 15:08 27.59635 -78.85887 33735 ft 519 kts 113°
2026-05-08 15:08 27.58762 -78.83378 33923 ft 519 kts 113°
2026-05-08 15:08 27.56997 -78.78310 34223 ft 520 kts 113°
2026-05-08 15:08 27.55674 -78.74517 34469 ft 520 kts 113°
2026-05-08 15:09 27.54797 -78.72007 34649 ft 519 kts 113°
2026-05-08 15:09 27.53478 -78.68229 34946 ft 518 kts 112°
2026-05-08 15:09 27.52161 -78.64463 35250 ft 516 kts 112°
2026-05-08 15:09 27.50847 -78.60707 35525 ft 515 kts 112°
2026-05-08 15:10 27.49534 -78.56960 35759 ft 515 kts 112°
2026-05-08 15:10 27.48220 -78.53215 35989 ft 515 kts 112°
2026-05-08 15:10 27.46904 -78.49468 36255 ft 513 kts 112°
2026-05-08 15:10 27.45594 -78.45738 36563 ft 511 kts 112°
2026-05-08 15:11 27.44289 -78.42028 36875 ft 509 kts 112°
2026-05-08 15:11 27.42986 -78.38328 37077 ft 509 kts 112°
2026-05-08 15:11 27.40359 -78.30879 37060 ft 512 kts 112°
2026-05-08 15:12 27.37741 -78.23466 37047 ft 508 kts 112°
2026-05-08 15:12 27.35137 -78.16108 37054 ft 505 kts 112°
2026-05-08 15:13 27.31963 -78.09132 37067 ft 499 kts 126°
2026-05-08 15:13 27.28074 -78.02673 37059 ft 499 kts 127°
2026-05-08 15:14 27.24168 -77.96212 37065 ft 500 kts 126°
2026-05-08 15:14 27.20295 -77.89697 37068 ft 503 kts 126°
2026-05-08 15:15 27.16417 -77.83136 37069 ft 505 kts 126°
2026-05-08 15:15 27.12548 -77.76600 37066 ft 507 kts 126°
2026-05-08 15:16 27.08629 -77.69997 37061 ft 509 kts 126°
2026-05-08 15:16 27.04696 -77.63379 37060 ft 510 kts 126°
2026-05-08 15:17 27.00742 -77.56772 37068 ft 510 kts 128°
2026-05-08 15:17 26.96282 -77.50634 37069 ft 506 kts 134°
2026-05-08 15:18 26.91631 -77.44719 37058 ft 505 kts 134°
2026-05-08 15:18 26.87013 -77.38815 37057 ft 503 kts 133°
2026-05-08 15:19 26.82449 -77.32893 37061 ft 501 kts 133°
2026-05-08 15:19 26.77919 -77.26983 37064 ft 499 kts 133°
2026-05-08 15:20 26.73401 -77.21093 37071 ft 498 kts 133°
2026-05-08 15:20 26.68894 -77.15230 37069 ft 496 kts 133°
2026-05-08 15:21 26.64394 -77.09388 37071 ft 496 kts 133°
2026-05-08 15:21 26.59925 -77.03594 37071 ft 495 kts 133°
2026-05-08 15:22 26.55421 -76.97763 37064 ft 495 kts 133°
2026-05-08 15:22 26.50922 -76.91944 37073 ft 495 kts 133°
2026-05-08 15:23 26.46413 -76.86121 37076 ft 496 kts 133°
2026-05-08 15:23 26.41899 -76.80298 37071 ft 496 kts 133°
2026-05-08 15:24 26.37380 -76.74477 37073 ft 497 kts 133°
2026-05-08 15:24 26.32855 -76.68655 37072 ft 497 kts 133°
2026-05-08 15:25 26.28328 -76.62839 37073 ft 497 kts 133°
2026-05-08 15:25 26.23794 -76.57021 37074 ft 497 kts 133°
2026-05-08 15:26 26.19264 -76.51215 37067 ft 496 kts 133°
2026-05-08 15:26 26.14735 -76.45418 37069 ft 496 kts 133°
2026-05-08 15:27 26.10213 -76.39638 37070 ft 495 kts 133°
2026-05-08 15:27 26.05697 -76.33874 37070 ft 494 kts 133°
2026-05-08 15:28 26.01190 -76.28128 37080 ft 493 kts 133°
2026-05-08 15:28 25.96688 -76.22394 37072 ft 492 kts 133°
2026-05-08 15:29 25.92188 -76.16672 37069 ft 491 kts 133°
2026-05-08 15:29 25.87722 -76.11001 37078 ft 491 kts 133°
2026-05-08 15:30 25.83227 -76.05298 37069 ft 490 kts 133°
2026-05-08 15:30 25.78735 -75.99607 37077 ft 490 kts 133°
2026-05-08 15:31 25.74240 -75.93919 37077 ft 490 kts 133°
2026-05-08 15:31 25.69716 -75.88202 37078 ft 490 kts 133°
2026-05-08 15:32 25.65219 -75.82526 37068 ft 490 kts 133°
2026-05-08 15:32 25.60748 -75.76889 37075 ft 490 kts 133°
2026-05-08 15:33 25.56247 -75.71222 37083 ft 490 kts 133°
2026-05-08 15:33 25.51742 -75.65557 37084 ft 490 kts 133°
2026-05-08 15:34 25.47239 -75.59900 37076 ft 490 kts 133°
2026-05-08 15:34 25.42734 -75.54250 37072 ft 489 kts 133°
2026-05-08 15:35 25.38231 -75.48607 37089 ft 489 kts 133°
2026-05-08 15:35 25.33728 -75.42973 37081 ft 489 kts 133°
2026-05-08 15:36 25.29986 -75.38295 37084 ft 489 kts 133°
2026-05-08 15:36 25.24724 -75.31725 37078 ft 488 kts 133°
2026-05-08 15:37 25.20222 -75.26112 37067 ft 488 kts 132°
2026-05-08 15:37 25.15754 -75.20546 37071 ft 487 kts 133°
2026-05-08 15:38 25.11255 -75.14948 37084 ft 487 kts 133°
2026-05-08 15:38 25.06758 -75.09361 37075 ft 487 kts 133°
2026-05-08 15:39 25.01760 -75.04383 37083 ft 484 kts 145°
2026-05-08 15:39 24.96303 -75.00036 37071 ft 484 kts 146°
2026-05-08 15:40 24.90846 -74.95683 37081 ft 484 kts 146°
2026-05-08 15:40 24.85420 -74.91289 37068 ft 484 kts 145°
2026-05-08 15:41 24.80001 -74.86882 37079 ft 484 kts 145°
2026-05-08 15:41 24.74577 -74.82476 37078 ft 484 kts 145°
2026-05-08 15:42 24.69152 -74.78078 37075 ft 485 kts 145°
2026-05-08 15:42 24.63725 -74.73683 37076 ft 485 kts 145°
2026-05-08 15:43 24.58272 -74.69333 37078 ft 484 kts 147°
2026-05-08 15:43 24.52743 -74.65098 37068 ft 484 kts 147°
2026-05-08 15:44 24.47226 -74.60863 37078 ft 484 kts 146°
2026-05-08 15:44 24.41758 -74.56559 37069 ft 484 kts 142°
2026-05-08 15:45 24.37029 -74.51285 37078 ft 485 kts 133°
2026-05-08 15:45 24.32509 -74.45788 37076 ft 485 kts 133°
2026-05-08 15:46 24.27997 -74.40364 37077 ft 485 kts 134°
2026-05-08 15:46 24.23420 -74.34936 37078 ft 485 kts 134°
2026-05-08 15:47 24.18836 -74.29525 37074 ft 484 kts 134°
2026-05-08 15:47 24.14256 -74.24123 37074 ft 483 kts 133°
2026-05-08 15:48 24.07400 -74.16042 37074 ft 482 kts 133°
2026-05-08 15:49 24.02837 -74.10671 37076 ft 481 kts 133°
2026-05-08 15:49 23.98282 -74.05314 37080 ft 481 kts 133°
2026-05-08 15:50 23.93726 -73.99962 37081 ft 480 kts 133°
2026-05-08 15:50 23.89176 -73.94622 37080 ft 480 kts 133°
2026-05-08 15:51 23.84632 -73.89278 37073 ft 479 kts 133°
2026-05-08 15:51 23.80101 -73.83942 37076 ft 479 kts 133°
2026-05-08 15:52 23.75567 -73.78608 37081 ft 479 kts 133°
2026-05-08 15:52 23.71035 -73.73285 37079 ft 479 kts 133°
2026-05-08 15:53 23.66496 -73.67959 37076 ft 479 kts 133°
2026-05-08 15:53 23.61957 -73.62638 37082 ft 479 kts 133°
2026-05-08 15:54 23.57412 -73.57316 37074 ft 479 kts 133°
2026-05-08 15:54 23.52846 -73.52028 37077 ft 479 kts 134°
2026-05-08 15:55 23.48258 -73.46754 37072 ft 479 kts 134°
2026-05-08 15:55 23.41416 -73.38887 37079 ft 479 kts 134°
2026-05-08 15:56 23.36837 -73.33622 37081 ft 479 kts 134°
2026-05-08 15:56 23.32258 -73.28364 37082 ft 479 kts 133°
2026-05-08 15:57 23.27679 -73.23109 37078 ft 478 kts 133°
2026-05-08 15:57 23.23102 -73.17863 37081 ft 478 kts 134°
2026-05-08 15:58 23.18525 -73.12623 37079 ft 478 kts 134°
2026-05-08 15:58 23.14718 -73.08269 37082 ft 478 kts 134°
2026-05-08 15:59 23.10142 -73.03039 37082 ft 477 kts 133°
2026-05-08 15:59 23.05567 -72.97815 37079 ft 477 kts 133°
2026-05-08 16:00 23.00991 -72.92596 37082 ft 477 kts 133°
2026-05-08 16:00 22.96500 -72.87292 37085 ft 477 kts 129°
2026-05-08 16:01 22.92335 -72.81691 37088 ft 477 kts 128°
2026-05-08 16:01 22.88221 -72.76040 37079 ft 478 kts 128°
2026-05-08 16:02 22.84101 -72.70437 37079 ft 478 kts 128°
2026-05-08 16:02 22.79937 -72.64823 37079 ft 478 kts 128°
2026-05-08 16:03 22.75759 -72.59212 37074 ft 478 kts 128°
2026-05-08 16:03 22.71583 -72.53609 37075 ft 478 kts 128°
2026-05-08 16:04 22.67401 -72.48002 37079 ft 478 kts 128°
2026-05-08 16:04 22.63222 -72.42404 37079 ft 478 kts 128°
2026-05-08 16:05 22.59040 -72.36807 37075 ft 478 kts 128°
2026-05-08 16:05 22.54858 -72.31217 37077 ft 478 kts 128°
2026-05-08 16:06 22.50671 -72.25627 37074 ft 478 kts 128°
2026-05-08 16:06 22.46482 -72.20039 37073 ft 478 kts 128°
2026-05-08 16:07 22.42295 -72.14460 37073 ft 478 kts 128°
2026-05-08 16:07 22.38104 -72.08882 37069 ft 478 kts 128°
2026-05-08 16:08 22.33911 -72.03306 37076 ft 478 kts 128°
2026-05-08 16:08 22.29719 -71.97739 37076 ft 478 kts 128°
2026-05-08 16:09 22.25522 -71.92170 37075 ft 478 kts 128°
2026-05-08 16:09 22.21354 -71.86646 37073 ft 478 kts 128°
2026-05-08 16:10 22.17150 -71.81080 37073 ft 478 kts 128°
2026-05-08 16:10 22.12946 -71.75520 37070 ft 479 kts 128°
2026-05-08 16:11 22.08733 -71.69952 37074 ft 479 kts 128°
2026-05-08 16:11 22.04519 -71.64391 37065 ft 479 kts 128°
2026-05-08 16:12 22.00306 -71.58835 37069 ft 479 kts 128°
2026-05-08 16:12 21.96089 -71.53281 37074 ft 479 kts 128°
2026-05-08 16:13 21.91868 -71.47726 37072 ft 479 kts 128°
2026-05-08 16:13 21.87648 -71.42180 37072 ft 479 kts 128°
2026-05-08 16:14 21.83426 -71.36636 37072 ft 479 kts 128°
2026-05-08 16:14 21.79203 -71.31096 37070 ft 478 kts 128°
2026-05-08 16:15 21.74982 -71.25564 37071 ft 478 kts 128°
2026-05-08 16:15 21.70760 -71.20036 37071 ft 478 kts 128°
2026-05-08 16:16 21.66540 -71.14517 37065 ft 478 kts 128°
2026-05-08 16:16 21.62318 -71.09000 37067 ft 478 kts 128°
2026-05-08 16:17 21.59019 -71.04692 37068 ft 478 kts 128°
2026-05-08 16:17 21.54413 -70.97999 37078 ft 476 kts 123°
2026-05-08 16:18 21.50717 -70.92093 37071 ft 476 kts 122°
2026-05-08 16:18 21.47022 -70.86193 37076 ft 476 kts 122°
2026-05-08 16:19 21.43296 -70.80311 37068 ft 477 kts 123°
2026-05-08 16:19 21.39574 -70.74476 37069 ft 477 kts 123°
2026-05-08 16:20 21.35826 -70.68611 37069 ft 477 kts 123°
2026-05-08 16:20 21.32073 -70.62744 37070 ft 477 kts 123°
2026-05-08 16:21 21.28320 -70.56880 37065 ft 477 kts 123°
2026-05-08 16:21 21.24569 -70.51024 37071 ft 477 kts 123°
2026-05-08 16:22 21.20811 -70.45165 37069 ft 477 kts 123°
2026-05-08 16:22 21.17053 -70.39311 37069 ft 477 kts 123°
2026-05-08 16:23 21.13292 -70.33459 37064 ft 477 kts 123°
2026-05-08 16:23 21.09532 -70.27614 37065 ft 477 kts 123°
2026-05-08 16:24 21.05769 -70.21770 37067 ft 477 kts 123°
2026-05-08 16:24 21.02002 -70.15927 37065 ft 477 kts 123°
2026-05-08 16:25 20.98235 -70.10089 37066 ft 477 kts 123°
2026-05-08 16:25 20.94467 -70.04256 37064 ft 477 kts 123°
2026-05-08 16:26 20.90697 -69.98428 37061 ft 477 kts 123°
2026-05-08 16:26 20.86923 -69.92597 37064 ft 476 kts 123°
2026-05-08 16:27 20.83150 -69.86775 37064 ft 476 kts 123°
2026-05-08 16:27 20.79377 -69.80958 37062 ft 476 kts 123°
2026-05-08 16:28 20.75602 -69.75143 37067 ft 476 kts 123°
2026-05-08 16:28 20.71826 -69.69335 37064 ft 476 kts 123°
2026-05-08 16:29 20.68052 -69.63533 37062 ft 476 kts 123°
2026-05-08 16:29 20.64272 -69.57729 37064 ft 476 kts 123°
2026-05-08 16:30 20.60515 -69.51968 37074 ft 476 kts 123°
2026-05-08 16:30 20.56737 -69.46177 37062 ft 476 kts 123°
2026-05-08 16:31 20.52923 -69.40339 37063 ft 476 kts 123°
2026-05-08 16:31 20.49161 -69.34585 37063 ft 476 kts 123°
2026-05-08 16:32 20.45372 -69.28798 37059 ft 476 kts 123°
2026-05-08 16:32 20.41584 -69.23017 37060 ft 475 kts 123°
2026-05-08 16:33 20.37796 -69.17241 37066 ft 475 kts 122°
2026-05-08 16:33 20.34008 -69.11471 37066 ft 475 kts 122°
2026-05-08 16:34 20.30218 -69.05703 37062 ft 475 kts 122°
2026-05-08 16:34 20.26424 -68.99935 37064 ft 475 kts 122°
2026-05-08 16:35 20.22634 -68.94179 37063 ft 475 kts 123°
2026-05-08 16:35 20.18838 -68.88420 37060 ft 475 kts 123°
2026-05-08 16:36 20.15042 -68.82664 37066 ft 475 kts 122°
2026-05-08 16:36 20.11246 -68.76914 37058 ft 475 kts 122°
2026-05-08 16:37 20.07451 -68.71162 37063 ft 475 kts 122°
2026-05-08 16:37 20.03797 -68.65322 37055 ft 474 kts 120°
2026-05-08 16:38 20.00201 -68.59434 37055 ft 474 kts 120°
2026-05-08 16:38 19.96596 -68.53561 37059 ft 474 kts 121°
2026-05-08 16:39 19.92971 -68.47698 37060 ft 474 kts 120°
2026-05-08 16:39 19.89339 -68.41841 37061 ft 474 kts 120°
2026-05-08 16:40 19.85708 -68.35992 37055 ft 474 kts 121°
2026-05-08 16:40 19.82100 -68.30182 37051 ft 474 kts 121°
2026-05-08 16:41 19.78467 -68.24338 37059 ft 474 kts 121°
2026-05-08 16:42 19.73017 -68.15581 37061 ft 474 kts 121°
2026-05-08 16:42 19.69381 -68.09747 37060 ft 474 kts 121°
2026-05-08 16:43 19.65743 -68.03915 37051 ft 474 kts 121°
2026-05-08 16:43 19.62105 -67.98088 37053 ft 474 kts 121°
2026-05-08 16:44 19.58468 -67.92269 37058 ft 473 kts 121°
2026-05-08 16:44 19.54828 -67.86449 37060 ft 473 kts 121°
2026-05-08 16:45 19.51190 -67.80637 37046 ft 473 kts 121°
2026-05-08 16:45 19.47544 -67.74826 37058 ft 473 kts 121°
2026-05-08 16:46 19.43891 -67.69026 37048 ft 473 kts 121°
2026-05-08 16:46 19.40237 -67.63230 37044 ft 473 kts 121°
2026-05-08 16:47 19.37197 -67.58409 37042 ft 473 kts 121°
2026-05-08 16:47 19.33539 -67.52613 37063 ft 473 kts 121°
2026-05-08 16:48 19.29289 -67.45883 37048 ft 473 kts 121°
2026-05-08 16:48 19.26229 -67.41043 37039 ft 472 kts 121°
2026-05-08 16:49 19.22581 -67.35272 37047 ft 471 kts 121°
2026-05-08 16:49 19.18937 -67.29511 37042 ft 470 kts 121°
2026-05-08 16:50 19.15301 -67.23765 37047 ft 470 kts 121°
2026-05-08 16:50 19.11691 -67.18066 37040 ft 469 kts 121°
2026-05-08 16:51 19.08057 -67.12334 37042 ft 469 kts 121°
2026-05-08 16:51 19.04422 -67.06608 37040 ft 469 kts 121°
2026-05-08 16:52 19.00787 -67.00886 37037 ft 469 kts 121°
2026-05-08 16:52 18.97148 -66.95162 37038 ft 469 kts 121°
2026-05-08 16:53 18.91660 -66.86538 36200 ft 473 kts 121°
2026-05-08 16:53 18.89822 -66.83654 35572 ft 473 kts 121°
2026-05-08 16:53 18.87984 -66.80771 34923 ft 474 kts 121°
2026-05-08 16:54 18.86137 -66.77874 34223 ft 476 kts 121°
2026-05-08 16:54 18.84284 -66.74969 33438 ft 478 kts 121°
2026-05-08 16:54 18.82425 -66.72057 32677 ft 479 kts 121°
2026-05-08 16:54 18.80559 -66.69134 31915 ft 481 kts 122°
2026-05-08 16:55 18.78699 -66.66197 31228 ft 480 kts 120°
2026-05-08 16:55 18.77165 -66.63099 30659 ft 474 kts 110°
2026-05-08 16:55 18.76123 -66.59827 30091 ft 469 kts 102°
2026-05-08 16:55 18.75524 -66.56464 29438 ft 463 kts 93°
2026-05-08 16:56 18.75296 -66.53092 28863 ft 458 kts 91°
2026-05-08 16:56 18.75104 -66.49760 28294 ft 453 kts 91°
2026-05-08 16:56 18.74915 -66.46455 27739 ft 449 kts 91°
2026-05-08 16:56 18.74723 -66.43223 27203 ft 445 kts 91°
2026-05-08 16:57 18.74520 -66.39981 26668 ft 441 kts 92°
2026-05-08 16:57 18.74311 -66.36762 26130 ft 438 kts 92°
2026-05-08 16:57 18.73983 -66.33585 25539 ft 433 kts 100°
2026-05-08 16:57 18.73168 -66.30541 24825 ft 429 kts 106°
2026-05-08 16:58 18.72252 -66.27538 23757 ft 433 kts 106°
2026-05-08 16:58 18.71320 -66.24497 22544 ft 437 kts 106°
2026-05-08 16:58 18.70393 -66.21451 21596 ft 433 kts 106°
2026-05-08 16:58 18.69490 -66.18451 20811 ft 426 kts 106°
2026-05-08 16:59 18.68608 -66.15497 20014 ft 419 kts 106°
2026-05-08 16:59 18.67741 -66.12580 19216 ft 414 kts 106°
2026-05-08 16:59 18.66888 -66.09701 18435 ft 409 kts 106°
2026-05-08 16:59 18.66045 -66.06852 17566 ft 404 kts 106°
2026-05-08 17:00 18.65211 -66.04034 16718 ft 399 kts 105°
2026-05-08 17:00 18.64387 -66.01252 15898 ft 395 kts 105°
2026-05-08 17:00 18.63574 -65.98507 15111 ft 390 kts 105°
2026-05-08 17:00 18.62768 -65.95790 14332 ft 386 kts 106°
2026-05-08 17:01 18.61971 -65.93104 13533 ft 382 kts 106°
2026-05-08 17:01 18.61184 -65.90455 12869 ft 374 kts 105°
2026-05-08 17:01 18.60417 -65.87877 12332 ft 363 kts 105°
2026-05-08 17:01 18.59674 -65.85380 11859 ft 352 kts 106°
2026-05-08 17:02 18.58946 -65.82935 11414 ft 348 kts 105°
2026-05-08 17:02 18.58224 -65.80508 10955 ft 347 kts 105°
2026-05-08 17:02 18.57511 -65.78114 10749 ft 337 kts 105°
2026-05-08 17:02 18.56825 -65.75815 10578 ft 328 kts 105°
2026-05-08 17:03 18.56150 -65.73553 10433 ft 318 kts 106°
2026-05-08 17:03 18.55497 -65.71365 10298 ft 309 kts 106°
2026-05-08 17:03 18.54863 -65.69241 10166 ft 300 kts 105°
2026-05-08 17:03 18.54246 -65.67173 10038 ft 291 kts 105°
2026-05-08 17:04 18.53643 -65.65150 9778 ft 289 kts 104°
2026-05-08 17:04 18.53043 -65.63139 9488 ft 287 kts 106°
2026-05-08 17:04 18.52446 -65.61140 9193 ft 285 kts 105°
2026-05-08 17:04 18.51852 -65.59154 8903 ft 283 kts 105°
2026-05-08 17:05 18.51263 -65.57181 8605 ft 281 kts 105°
2026-05-08 17:05 18.50683 -65.55241 8300 ft 274 kts 105°
2026-05-08 17:05 18.50115 -65.53342 8028 ft 269 kts 107°
2026-05-08 17:05 18.49552 -65.51463 7755 ft 268 kts 106°
2026-05-08 17:06 18.48992 -65.49593 7477 ft 268 kts 107°
2026-05-08 17:06 18.48433 -65.47730 7188 ft 266 kts 107°
2026-05-08 17:06 18.47622 -65.45996 6923 ft 266 kts 129°
2026-05-08 17:06 18.46356 -65.44597 6730 ft 262 kts 134°
2026-05-08 17:07 18.45076 -65.43248 6511 ft 259 kts 133°
2026-05-08 17:07 18.43811 -65.41915 6288 ft 256 kts 133°
2026-05-08 17:07 18.42559 -65.40592 6069 ft 254 kts 133°
2026-05-08 17:07 18.41323 -65.39281 5858 ft 252 kts 133°
2026-05-08 17:08 18.40082 -65.37962 5663 ft 255 kts 133°
2026-05-08 17:08 18.38826 -65.36625 5444 ft 257 kts 133°
2026-05-08 17:08 18.37585 -65.35303 5229 ft 257 kts 133°
2026-05-08 17:08 18.36317 -65.33952 5020 ft 256 kts 133°
2026-05-08 17:09 18.35070 -65.32624 4814 ft 255 kts 134°
2026-05-08 17:09 18.33827 -65.31301 4600 ft 254 kts 134°
2026-05-08 17:09 18.32737 -65.29860 4373 ft 252 kts 114°
2026-05-08 17:09 18.32398 -65.28095 4195 ft 249 kts 92°
2026-05-08 17:10 18.32466 -65.26274 4007 ft 249 kts 87°
2026-05-08 17:10 18.32607 -65.24456 3782 ft 247 kts 86°
2026-05-08 17:10 18.32706 -65.22686 3573 ft 238 kts 89°
2026-05-08 17:10 18.32759 -65.20975 3377 ft 230 kts 90°
2026-05-08 17:11 18.32804 -65.19323 3190 ft 222 kts 89°
2026-05-08 17:11 18.32849 -65.17727 3008 ft 215 kts 89°
2026-05-08 17:11 18.32914 -65.16181 2832 ft 208 kts 88°
2026-05-08 17:11 18.32981 -65.14683 2686 ft 201 kts 89°
2026-05-08 17:12 18.33044 -65.13251 2534 ft 191 kts 88°
2026-05-08 17:12 18.33106 -65.11880 2404 ft 182 kts 89°
2026-05-08 17:12 18.33165 -65.10580 2226 ft 176 kts 88°
2026-05-08 17:12 18.33219 -65.09312 2016 ft 171 kts 89°
2026-05-08 17:13 18.33271 -65.08075 1801 ft 166 kts 88°
2026-05-08 17:13 18.33321 -65.06899 1587 ft 155 kts 88°
2026-05-08 17:13 18.33368 -65.05793 1386 ft 149 kts 88°
2026-05-08 17:13 18.33413 -65.04726 1225 ft 147 kts 88°
2026-05-08 17:14 18.33457 -65.03681 1010 ft 138 kts 86°
2026-05-08 17:14 18.33502 -65.02654 849 ft 145 kts 89°
2026-05-08 17:14 18.33547 -65.01598 654 ft 145 kts 91°
2026-05-08 17:14 18.33592 -65.00528 472 ft 145 kts 91°
2026-05-08 17:15 18.33644 -64.99457 260 ft 149 kts 91°
2026-05-08 17:15 18.33687 -64.98391 67 ft 142 kts 91°
2026-05-08 17:15 18.33723 -64.97424 27 ft 117 kts 86°
2026-05-08 17:15 18.33756 -64.96722 20 ft 75 kts 87°
2026-05-08 17:16 18.33768 -64.96425 18 ft 20 kts 88°
2026-05-08 17:16 18.33749 -64.96341 19 ft 13 kts 149°
2026-05-08 17:16 18.33689 -64.96369 22 ft 11 kts 263°
2026-05-08 17:16 18.33684 -64.96452 26 ft 13 kts 268°
2026-05-08 17:17 18.33679 -64.96580 23 ft 20 kts 267°
2026-05-08 17:17 18.33673 -64.96719 23 ft 18 kts 267°
2026-05-08 17:17 18.33668 -64.96834 24 ft 14 kts 268°
2026-05-08 17:17 18.33664 -64.96946 25 ft 18 kts 268°
2026-05-08 17:18 18.33658 -64.97090 25 ft 20 kts 267°
2026-05-08 17:18 18.33652 -64.97221 29 ft 14 kts 268°
2026-05-08 17:18 18.33614 -64.97253 29 ft 6 kts 174°
2026-05-08 17:18 18.33590 -64.97251 27 ft 0 kts 176°
2026-05-08 17:19 18.33574 -64.97250 26 ft 4 kts 176°
2026-05-08 17:19 18.33559 -64.97250 28 ft 0 kts 176°